Flag for U.S.A. Weather past 2 weeks in Hartford, Connecticut, U.S.A.

Now
82 °F

Passing clouds.


Feels Like: 82 °F
Forecast: 66 / 85 °F
Wind: 10 mph from Northwest

Location: Hartford-Brainard Airport

Current Time: Aug 1, 2015 at 4:21:23 PM

Latest Report: Aug 1, 2015 at 3:53 PM


Visibility: 10 mi

Pressure: 29.74 "Hg

Humidity: 44%

Dew point: 58 °F

Location of HartfordLocation

Historic Weather in Hartford — Graph

°F

Hartford temperature yesterday

Maximum temperature yesterday: 88 °F (at 3:53 PM)
Minimum temperature yesterday: 70 °F (at 5:53 AM)
Average temperature yesterday: 78 °F

Past Weeks' High & Low Weather Summary

 TemperatureHumidityPressure
High94 °F (Jul 29, 3:53 PM)97% (Jul 19, 5:53 AM)30.04 "Hg (Jul 19, 5:53 AM)
Low59 °F (Jul 24, 5:53 AM)32% (Jul 22, 5:53 PM)29.54 "Hg (Jul 21, 7:00 PM)
Average77 °F68%29.86 "Hg
* Reported Jul 17 2:53 PM — Aug 1 2:53 PM, Hartford, Weather by CustomWeather, © 2015

Note: Actual official high and low records may vary slightly from our data, if they occured in-between our weather recording intervals... More about our weather records

Advertising

Hartford weather history for previous 24 hours

 ConditionsComfort  
Time TempWeatherWind HumidityBarometerVisibility
2:53 PM
Sat, Aug 1
82 °FLight rain. Partly sunny.10 mph46%29.74 "Hg10 mi
1:53 PM88 °FSunny.14 mph36%29.74 "Hg10 mi
12:53 PM85 °FSunny.8 mph42%29.76 "Hg10 mi
11:53 AM84 °FScattered clouds.5 mph48%29.76 "Hg10 mi
10:53 AM84 °FPassing clouds.6 mph49%29.76 "Hg10 mi
9:53 AM81 °FSunny.5 mph54%29.75 "Hg10 mi
8:53 AM79 °FSunny.6 mph56%29.77 "Hg10 mi
7:53 AM75 °FSunny.6 mph66%29.76 "Hg10 mi
6:53 AM71 °FPassing clouds.7 mph71%29.76 "Hg10 mi
5:53 AM69 °FPassing clouds.7 mph73%29.75 "Hg10 mi
4:53 AM69 °FPassing clouds.5 mph73%29.75 "Hg10 mi
3:53 AM70 °FPassing clouds.3 mph68%29.76 "Hg10 mi
2:53 AM69 °FPassing clouds.5 mph73%29.77 "Hg10 mi
1:53 AM70 °FPassing clouds.3 mph76%29.78 "Hg10 mi
12:53 AM69 °FPassing clouds.No wind79%29.80 "Hg10 mi
11:53 PM
Fri, Jul 31
70 °FClear.No wind76%29.81 "Hg10 mi
10:53 PM71 °FClear.No wind76%29.80 "Hg10 mi
9:53 PM73 °FClear.6 mph74%29.80 "Hg10 mi
8:53 PM75 °FSunny.No wind66%29.78 "Hg10 mi
7:53 PM83 °FSunny.5 mph40%29.78 "Hg10 mi
6:53 PM86 °FSunny.6 mph35%29.77 "Hg10 mi
5:53 PM87 °FPassing clouds.9 mph33%29.77 "Hg10 mi
4:53 PM87 °FPassing clouds.8 mph32%29.78 "Hg10 mi
Weather by CustomWeather, © 2015

See weather overviewHow to use our weather pages